User: anonymous   Login
Location: Unspecified
(0.0000°N, 0.0000°E)
Time: 01:54:30
(UTC+00:00)
Language:

KUIPER-00085 - Orbit

View from above orbital plane
View from above orbital plane
View from above satellite
View from above satellite

Ground track
Ground track

The orbit is defined by the following mean orbital elements,

1 64831U          26145.18357784 +.00000000 +00000-0 +89039-4 0 00009
2 64831  51.9029 309.8947 0000736 121.9746 238.1288 14.79931142    09
Epoch (UTC): 25 May 2026 04:24:21
Eccentricity: 0.0000736
inclination: 51.9029°
perigee height: 629 km
apogee height: 630 km
right ascension of ascending node: 309.8947°
argument of perigee: 121.9746°
revolutions per day: 14.79931142
mean anomaly at epoch: 238.1288°

The dashed part of the orbit path shows where the satellite is in the earth's shadow,  

DLR